#timestamp,LO_Frequency,Hit,StdDev 
1697896815.6,286046997.1,N
1697896835.5,286046996.5,N
1697896855.3,286046999.6,N
1697896875.1,286046997.3,N
1697896895.9,286046996.7,N
1697896915.7,286046995.6,N
1697896935.6,286046995.8,N
1697896955.4,286046995.3,N
1697896975.2,286046993.3,Y
1697896995.1,286046997.8,P
1697896996.0,286046997.8,P
1697897015.8,286046997.1,P
1697897035.7,286046996.9,Y
1697897055.5,286047000.5,P
1697897075.3,286047000.6,N
1697897095.2,286047000.7,N
1697897115.0,286046998.7,N
1697897115.9,286046998.7,N
1697897135.7,286046998.4,N
1697897155.6,286047001.2,N
1697897175.4,286047000.5,N
1697897195.3,286047001.2,N
1697897215.1,286047001.2,N
1697897216.0,286047001.2,N
1697897235.8,286047001.2,N
1697897255.7,286047001.1,N
1697897275.5,286046998.2,N
1697897295.4,286046999.6,N
1697897315.2,286046999.5,N
1697897335.0,286046998.5,N
1697897335.9,286046998.5,N
1697897355.8,286047000.8,N
1697897375.6,286047001.1,N
1697897395.4,286046998.1,N
1697897415.3,286046998.4,N
1697897435.1,286046998.1,N
1697897455.9,286046998.4,N
1697897475.7,286046998.4,N
1697897495.5,286046999.5,N
1697897515.4,286046998.3,N
1697897535.2,286047000.8,N
1697897555.0,286046998.8,N
1697897555.9,286046998.8,N
1697897575.8,286046997.0,N
1697897595.6,286046996.9,N
1697897615.5,286046997.0,N
1697897635.3,286046997.3,N
1697897655.1,286046998.9,N
1697897675.9,286046999.1,N
1697897695.7,286046999.2,N
1697897715.5,286046997.0,N
1697897735.4,286046997.4,N
1697897755.2,286046995.3,Y
1697897775.1,286046997.5,P
1697897776.0,286046997.5,P
1697897795.8,286046997.4,P
1697897815.6,286046997.8,Y
1697897835.5,286046998.9,P
1697897855.3,286046998.1,P
1697897875.2,286047000.7,N
1697897895.9,286047000.4,N
1697897915.7,286046998.2,N
1697897935.6,286046998.1,N
1697897955.4,286046998.5,N
1697897975.2,286046998.4,N
1697897995.1,286046998.5,N
1697897996.0,286046998.5,N
1697898015.8,286046998.5,N
1697898035.7,286046998.3,N
1697898055.5,286046999.3,N
1697898075.3,286046998.7,N
1697898095.2,286047001.2,N
1697898115.9,286046999.0,N
1697898135.7,286046996.5,Y
1697898155.6,286046998.8,P
1697898175.4,286047001.2,P
1697898195.3,286046998.1,N
1697898215.1,286046998.5,N
1697898216.0,286046998.5,N
1697898235.8,286046998.1,N
1697898255.7,286046998.1,N
1697898275.5,286047000.9,N
1697898295.3,286047000.9,N
1697898315.2,286047000.9,N
1697898335.0,286046998.4,N
1697898335.9,286046998.4,N
1697898355.8,286047001.2,N
1697898375.6,286046998.1,N
1697898395.4,286046998.3,N
1697898415.3,286047000.7,N
1697898435.1,286046998.4,N
1697898455.8,286046999.4,N
1697898475.7,286046999.1,N
1697898525.6,286046999.6,E
1697898535.5,286047001.0,N
1697898555.3,286047000.9,P
1697898575.2,286047000.8,P
1697898595.9,286047000.7,Y
1697898615.7,286046999.1,P
1697898635.6,286046998.9,N
1697898655.4,286046999.0,N
1697898675.2,286046999.0,N
1697898695.1,286047000.8,N
1697898696.0,286047000.8,N
1697898715.8,286046998.4,N
1697898735.7,286046998.6,N
1697898755.5,286046999.0,N
1697898775.3,286046998.9,N
1697898795.2,286046999.0,N
1697898815.0,286046998.4,N
1697898815.9,286046998.4,N
1697898835.8,286046999.6,N
1697898855.6,286046999.0,N
1697898875.4,286046997.1,Y
1697898895.3,286046996.5,P
1697898915.1,286046997.0,N
1697898935.8,286046997.0,N
1697898955.7,286046997.3,N
1697898975.5,286046996.5,Y
1697898995.4,286047002.7,P
1697899015.2,286047000.6,N
1697899035.0,286047002.1,N
1697899035.9,286047002.1,N
1697899055.8,286047000.0,N
1697899075.6,286047000.0,N
1697899095.4,286047000.4,N
1697899115.3,286047000.9,N
1697899135.1,286046998.8,N
1697899155.9,286046998.9,N
1697899175.7,286046998.4,N
1697899195.5,286047001.0,N
1697899215.4,286047000.6,N
1697899235.2,286047000.6,N
1697899255.0,286047000.3,N
1697899255.9,286047000.3,N
1697899275.8,286046999.8,N
1697899295.6,286047002.7,N
1697899315.5,286047002.2,N
1697899335.3,286046999.8,N
1697899355.1,286047002.0,N
1697899375.9,286047001.7,N
1697899395.7,286047003.7,N
1697899415.5,286047001.6,N
1697899435.4,286047000.1,N
1697899455.2,286047000.0,N
1697899475.0,286047002.6,N
1697899476.0,286047002.6,N
1697899495.8,286047001.3,N
1697899515.6,286047004.0,N
1697899535.5,286047003.7,N
1697899555.3,286047003.8,N
1697899575.1,286047003.1,N
1697899595.9,286047003.7,N
1697899615.7,286047005.3,Y
1697899635.6,286047005.5,P
1697899655.4,286047003.4,N
1697899675.2,286047003.8,N
1697899695.1,286047003.7,N
1697899696.0,286047003.7,N
1697899715.8,286047003.5,N
1697899735.6,286047006.0,Y
1697899755.5,286047000.1,P
1697899775.3,286046999.9,N
1697899795.2,286047000.0,N
1697899815.0,286047000.9,N
1697899815.9,286047000.9,N
1697899835.7,286047000.7,N
1697899855.6,286047000.0,N
1697899875.4,286047000.2,N
1697899895.3,286046999.8,N
1697899915.1,286047001.4,N
1697899916.0,286047001.4,N
1697899935.8,286047001.5,N
1697899955.7,286047004.4,Y
1697899975.5,286047002.0,P
1697899995.4,286047002.5,P
1697900015.2,286047001.7,N
1697900035.0,286047002.6,Y
1697900035.9,286047002.6,P
1697900055.8,286046998.2,P
1697900075.6,286047000.2,N
1697900095.4,286047002.7,N
1697900115.3,286046999.8,N
1697900135.1,286047002.3,N
1697900155.9,286047002.3,N
1697900175.7,286047002.5,N
1697900195.5,286047000.1,N
1697900215.4,286047002.4,N
1697900235.2,286047002.8,N
1697900255.0,286047000.2,N
1697900255.9,286047000.2,N
1697900275.8,286047000.4,N
1697900295.6,286047000.0,N
1697900315.5,286047000.7,N
1697900335.3,286047000.1,N
1697900355.1,286047002.6,N
1697900375.9,286047004.0,Y
1697900395.7,286046999.7,P
